TimeCST,TemperatureF,Dew PointF,Humidity,Sea Level PressureIn,VisibilityMPH,Wind Direction,Wind SpeedMPH,Gust SpeedMPH,PrecipitationIn,Events,Conditions,WindDirDegrees,DateUTC
12:54 AM,46.0,37.9,73,29.62,10.0,NW,18.4,28.8,0.00,,Overcast,310,2011-12-30 06:54:00
1:54 AM,46.0,37.9,73,29.65,10.0,WNW,19.6,27.6,N/A,,Overcast,300,2011-12-30 07:54:00
2:54 AM,45.0,35.1,68,29.68,10.0,WNW,16.1,24.2,N/A,,Clear,290,2011-12-30 08:54:00
3:54 AM,43.0,32.0,65,29.70,10.0,WNW,16.1,24.2,N/A,,Clear,290,2011-12-30 09:54:00
4:54 AM,43.0,28.9,58,29.70,10.0,WNW,18.4,27.6,N/A,,Clear,290,2011-12-30 10:54:00
5:54 AM,41.0,28.4,61,29.71,10.0,WNW,15.0,21.9,N/A,,Clear,290,2011-12-30 11:54:00
6:54 AM,41.0,27.0,57,29.75,10.0,WNW,17.3,25.3,N/A,,Clear,290,2011-12-30 12:54:00
7:54 AM,39.9,26.1,58,29.77,10.0,WNW,15.0,-,N/A,,Clear,290,2011-12-30 13:54:00
8:54 AM,41.0,26.1,55,29.79,10.0,WNW,17.3,-,N/A,,Clear,300,2011-12-30 14:54:00
9:54 AM,46.0,25.0,44,29.82,10.0,NW,25.3,35.7,N/A,,Clear,310,2011-12-30 15:54:00
10:54 AM,48.0,28.0,46,29.82,10.0,NW,25.3,34.5,N/A,,Clear,310,2011-12-30 16:54:00
11:54 AM,48.9,27.0,43,29.82,10.0,NNW,25.3,33.4,N/A,,Clear,330,2011-12-30 17:54:00
12:54 PM,48.9,26.1,41,29.83,10.0,WNW,19.6,26.5,N/A,,Clear,290,2011-12-30 18:54:00
1:54 PM,50.0,28.0,43,29.83,10.0,NNW,17.3,25.3,N/A,,Clear,340,2011-12-30 19:54:00
2:54 PM,50.0,28.9,44,29.84,10.0,NW,15.0,21.9,N/A,,Clear,320,2011-12-30 20:54:00
3:54 PM,50.0,28.0,43,29.86,10.0,NW,13.8,-,N/A,,Clear,320,2011-12-30 21:54:00
4:54 PM,46.0,28.9,51,29.89,10.0,NW,5.8,-,N/A,,Clear,320,2011-12-30 22:54:00
5:54 PM,37.9,28.0,68,29.91,10.0,Calm,Calm,-,N/A,,Clear,0,2011-12-30 23:54:00
6:54 PM,37.0,27.0,67,29.91,10.0,Calm,Calm,-,N/A,,Clear,0,2011-12-31 00:54:00
7:54 PM,34.0,26.1,73,29.91,10.0,Calm,Calm,-,N/A,,Clear,0,2011-12-31 01:54:00
8:54 PM,30.9,25.0,79,29.90,10.0,South,3.5,-,N/A,,Clear,180,2011-12-31 02:54:00
9:54 PM,33.1,26.1,75,29.88,10.0,SE,4.6,-,N/A,,Clear,140,2011-12-31 03:54:00
10:54 PM,28.9,24.1,82,29.88,10.0,Calm,Calm,-,N/A,,Clear,0,2011-12-31 04:54:00
11:54 PM,28.9,23.0,78,29.84,10.0,Calm,Calm,-,N/A,,Clear,0,2011-12-31 05:54:00